Theta_e
299 300 300 301 300 300 301 301 301 302 302 302 302 301 302 301 301 297 292 293 287 279 282 285 285 281 281 279 274 274 275 274 273 266 266 272 265 271 268 271 270 268 264 261 259 257 263 277 275 271 275 278 278 277
299 299 300 300 301 301 301 301 301 301 301 302 302 302 302 301 301 300 292 294 294 284 280 289 288 289 286 285 278 273 275 271 277 270 267 268 263 264 265 262 274 267 271 266 269 268 276 277 277 279 279 277 278 277
298 298 298 298 300 300 300 301 301 301 301 301 301 302 302 302 301 300 294 295 291 285 285 284 281 288 291 289 287 276 275 281 280 280 272 270 264 272 263 264 267 273 274 272 270 274 276 277 278 279 279 279 280 279
297 297 297 297 298 299 299 299 300 300 300 300 301 301 301 301 301 301 294 294 291 286 274 277 286 284 290 289 288 286 284 283 282 282 274 270 266 277 270 273 272 275 274 272 272 276 277 278 278 279 279 279 279 279
297 297 297 297 298 298 298 298 299 299 299 299 299 300 300 300 300 299 297 295 294 286 278 274 278 284 287 288 286 286 285 283 279 279 277 273 274 274 271 276 273 278 276 273 272 278 277 278 280 280 279 279 279 278
296 296 297 297 297 297 297 298 298 297 297 298 298 299 299 299 300 294 286 295 295 294 284 278 283 277 284 287 286 285 285 284 283 281 279 278 280 277 271 266 278 280 280 281 278 281 280 281 281 280 278 278 279 278
296 296 296 296 296 296 297 297 297 296 297 297 297 297 298 299 296 288 285 290 297 294 284 278 278 278 283 282 280 282 284 284 283 281 280 278 278 281 275 271 278 279 280 280 280 280 278 279 278 279 279 278 274 272
296 295 295 295 296 296 296 296 295 296 296 296 296 297 297 297 296 291 292 295 296 287 284 277 276 274 280 280 279 283 282 283 282 281 277 277 279 279 273 277 279 280 280 280 280 281 281 280 276 274 272 270 267 269
295 294 294 294 295 295 295 294 294 294 295 296 296 296 292 288 284 287 296 296 293 287 279 278 272 264 280 279 281 280 281 276 282 278 276 278 272 272 275 277 278 279 278 279 277 271 271 273 274 270 268 266 267 267
294 294 293 293 293 293 293 294 294 294 294 294 291 285 282 285 294 294 289 285 284 284 283 278 267 272 277 273 270 275 278 275 272 273 277 275 273 278 279 279 277 276 275 273 268 267 263 264 268 268 268 265 265 265
293 292 291 291 290 290 291 292 293 293 292 288 283 282 284 293 287 284 279 278 277 276 280 274 276 272 273 270 269 277 271 274 270 271 271 267 266 276 279 279 276 273 270 265 267 265 265 265 266 264 263 262 262 261
290 290 290 290 290 290 291 292 293 289 286 287 286 287 286 283 281 276 275 271 274 269 267 273 270 274 276 277 273 275 271 272 268 267 267 262 273 274 274 269 265 265 264 261 261 262 262 263 261 260 259 258 257 256
289 289 289 289 290 290 291 291 292 292 290 286 282 279 277 274 272 268 262 271 262 270 271 267 271 275 277 278 275 274 270 269 270 270 267 267 267 267 263 261 257 257 257 257 257 257 257 256 255 254 253 254 252 251
287 287 288 288 289 290 290 291 291 290 284 277 275 270 271 266 268 269 263 265 270 268 270 269 272 271 273 274 275 271 272 270 267 265 261 262 267 267 260 258 256 254 255 255 253 254 253 253 252 251 251 250 249 248
286 286 286 286 288 288 289 290 290 287 281 275 274 267 268 263 259 258 258 264 268 270 276 273 269 275 271 272 274 271 266 265 264 261 263 266 262 260 257 256 253 252 252 251 250 251 252 252 251 248 245 244 245 245
285 284 282 287 287 288 289 288 284 284 280 276 271 268 261 262 259 258 258 263 267 274 277 275 272 272 270 272 270 267 265 261 263 262 255 256 256 256 255 254 251 250 250 249 248 248 249 248 247 246 242 242 243 243
283 272 284 285 286 287 287 280 280 278 276 273 266 251 260 270 269 266 261 266 270 275 271 271 269 268 273 269 268 269 265 261 253 253 255 255 255 254 253 252 248 248 247 246 243 243 244 242 240 243 248 245 242 243
268 277 284 287 282 278 272 271 274 271 266 263 261 255 252 253 258 258 261 266 268 271 272 271 273 269 267 265 264 264 256 252 254 255 254 253 252 252 251 249 247 246 245 243 245 243 241 243 244 245 243 243 244 245
274 279 282 283 280 271 265 264 266 265 260 259 260 260 255 254 257 259 259 263 265 267 266 269 268 268 262 257 257 256 256 257 256 254 253 252 252 250 248 248 247 246 246 244 247 250 246 243 244 244 245 245 246 245
279 280 280 278 277 271 265 261 263 260 257 259 261 259 258 256 257 253 253 259 264 266 266 265 259 254 255 254 254 255 257 257 255 253 252 251 251 250 249 247 249 249 248 246 247 247 244 245 245 244 244 245 245 246
274 273 276 269 265 263 261 260 258 259 259 256 257 259 257 258 256 255 254 258 263 256 257 252 252 252 252 251 251 252 252 254 253 253 251 250 250 251 249 250 249 248 247 245 245 245 244 244 244 244 244 244 245 247
268 275 268 270 263 257 256 258 256 256 255 252 256 255 249 248 248 251 255 256 252 249 249 249 250 250 252 249 249 248 249 250 252 253 254 253 251 250 248 245 244 244 243 242 242 243 243 243 243 244 245 246 249 251
268 269 264 261 258 255 252 254 251 253 251 251 248 250 248 246 247 254 253 250 248 249 247 247 248 248 249 249 250 250 250 252 252 251 250 250 247 244 245 243 243 244 243 244 242 243 244 248 248 248 248 250 251 252
262 255 255 254 252 249 250 250 253 253 254 252 250 247 245 242 249 252 247 246 247 249 249 248 248 249 248 249 249 249 249 249 248 247 244 247 246 244 246 246 242 241 243 243 244 245 246 247 252 250 250 251 250 251
257 247 249 246 250 250 249 249 253 254 250 248 248 247 245 244 252 249 248 248 251 250 250 250 250 251 250 250 250 248 245 245 246 244 245 244 244 244 243 242 243 244 244 246 248 250 250 251 251 251 252 250 251 251
246 243 242 237 245 247 247 248 248 248 250 249 245 246 245 248 249 246 246 248 248 247 247 247 248 249 249 246 246 247 245 241 242 246 246 242 242 244 243 245 246 251 251 250 251 252 252 252 251 251 251 252 253 252
244 240 240 240 241 241 244 245 248 249 248 247 246 247 249 248 244 243 246 248 247 244 244 244 243 245 244 245 244 242 241 240 244 246 244 242 244 244 248 250 251 252 250 251 252 252 252 252 252 252 252 252 252 252
239 240 240 240 239 236 237 237 239 243 245 244 245 246 246 245 245 246 247 248 245 244 243 242 243 243 243 246 249 251 250 249 250 251 250 250 250 251 251 251 251 259 253 252 252 252 251 251 251 251 251 251 252 252
239 239 240 243 239 240 238 239 239 240 241 240 243 245 244 246 245 246 249 249 250 248 247 249 251 251 253 254 254 254 254 254 254 253 252 251 251 252 250 249 249 249 249 248 253 256 252 251 251 251 251 251 251 248
239 238 244 246 246 244 242 239 239 239 240 240 241 244 247 249 250 250 249 249 249 249 249 250 252 253 252 252 252 252 252 252 252 251 249 249 250 250 248 247 246 246 246 246 250 251 254 248 248 244 245 245 245 246
235 235 238 241 242 241 239 238 239 239 240 241 241 243 246 247 249 251 252 251 251 252 253 253 252 251 251 251 250 252 252 252 252 251 250 250 250 248 248 249 250 249 248 248 249 248 249 247 244 244 245 246 246 247
243 241 242 244 241 236 232 234 238 240 241 244 245 245 247 248 248 251 252 252 251 250 251 251 250 250 251 252 252 251 253 252 252 253 252 253 252 251 251 252 251 250 249 249 249 248 247 246 247 247 248 247 247 247
242 241 242 243 244 244 243 242 244 245 245 245 245 244 243 246 247 250 253 252 250 250 250 250 251 251 252 252 252 252 253 252 253 257 257 257 256 256 255 251 253 253 252 251 251 250 249 248 248 247 246 246 246 246
Wind_Speed
21 22 19 18 20 21 20 18 18 17 16 17 18 17 17 16 17 6 3 5 5 3 4 4 3 5 4 4 6 5 6 3 2 3 5 5 4 7 3 5 8 9 8 6 3 1 10 8 2 8 9 3 6 7
23 19 17 18 20 19 18 18 18 17 17 18 19 20 16 16 15 14 2 3 3 3 4 2 4 4 4 8 8 1 5 5 6 4 1 3 1 1 5 5 2 2 9 8 12 10 5 7 8 10 6 7 6 7
23 22 20 17 16 16 16 17 17 17 15 15 16 18 20 19 20 15 3 6 4 3 3 3 5 9 4 4 7 7 3 6 5 5 5 4 4 4 4 6 2 6 3 6 4 6 9 9 8 8 8 9 8 9
21 19 22 23 20 18 15 12 16 14 13 14 14 16 18 17 20 18 6 6 2 3 3 6 2 5 6 6 5 5 6 3 4 3 3 4 4 4 5 5 7 8 5 7 8 10 12 12 10 10 11 9 8 8
23 21 21 20 19 22 18 16 14 13 13 13 13 12 13 15 14 10 4 8 9 5 3 3 3 5 5 7 9 7 7 6 3 3 3 5 3 3 1 2 7 11 18 12 14 15 11 15 11 7 8 12 11 9
22 21 20 17 18 18 17 15 15 13 12 14 12 12 14 13 14 2 4 7 10 5 3 4 2 2 7 12 15 13 12 6 4 4 3 3 4 6 4 5 15 20 15 17 17 14 14 17 12 8 9 10 10 9
20 19 16 17 15 14 13 16 15 13 12 12 12 12 13 14 7 3 3 2 13 8 4 3 3 4 6 4 2 4 5 5 7 4 5 4 4 7 3 8 23 17 14 13 11 12 14 13 10 8 9 7 4 4
20 18 17 16 15 15 15 14 12 13 13 14 13 13 12 12 9 8 5 7 8 3 2 3 2 1 3 5 4 4 5 4 7 5 2 6 3 4 7 16 19 15 12 14 17 15 17 11 2 3 4 5 4 5
17 17 14 13 13 15 15 13 13 11 11 13 14 14 3 4 3 3 15 13 5 3 3 3 6 6 3 2 3 2 3 4 2 5 5 6 4 8 14 18 16 17 11 17 6 1 2 7 6 5 4 3 4 3
13 14 14 12 11 11 11 11 11 11 11 8 4 3 4 5 10 12 8 5 7 5 3 4 1 5 6 2 1 4 3 4 4 6 4 6 10 20 18 14 9 8 8 6 4 5 1 3 5 5 5 3 3 4
15 15 13 11 8 8 10 12 13 10 6 2 3 3 2 4 3 4 5 6 4 4 5 5 10 6 3 6 4 3 4 4 4 6 8 5 7 17 18 18 8 4 7 4 5 5 5 3 5 6 4 4 4 4
1 4 7 8 8 9 10 13 15 7 3 4 3 3 0 3 4 6 6 3 5 8 3 7 6 6 3 3 4 5 6 6 7 4 5 5 13 8 9 7 5 6 8 7 3 7 6 7 5 6 5 4 4 4
7 9 8 8 9 10 12 12 14 14 11 3 2 2 4 3 7 8 7 3 1 3 4 2 1 5 3 3 3 6 9 7 5 6 6 8 4 5 6 7 6 5 8 8 6 6 7 6 6 5 5 4 3 3
5 2 2 5 7 9 11 13 13 11 4 3 5 7 6 4 5 5 6 5 4 4 7 4 4 5 3 6 4 4 4 4 6 6 9 5 8 7 7 6 9 7 7 9 8 7 7 6 5 4 4 3 3 1
6 4 2 4 7 8 11 12 14 3 3 4 4 5 5 3 1 2 3 1 2 1 6 3 2 4 3 4 5 3 4 5 7 8 6 5 4 9 9 6 8 9 8 7 5 6 6 5 5 3 1 1 1 1
8 5 4 6 7 10 13 10 4 2 3 4 4 3 2 3 4 4 2 1 2 1 2 1 3 4 6 5 7 7 7 8 7 6 1 1 3 6 7 6 6 6 7 7 5 5 5 4 4 3 2 2 2 3
7 1 10 11 9 8 8 2 2 5 4 6 2 2 1 3 3 2 1 1 3 1 2 3 6 8 2 3 4 5 6 4 2 2 3 3 6 8 8 8 6 6 6 6 4 4 4 2 3 3 3 3 3 4
1 4 11 17 8 6 3 5 2 2 3 3 1 3 1 1 3 2 2 2 1 2 2 2 2 5 4 5 3 1 2 1 3 3 4 3 6 8 6 8 5 6 6 5 4 4 3 3 3 1 3 4 3 4
1 1 11 13 6 5 4 4 3 4 2 1 2 2 1 1 1 2 1 2 1 1 2 1 4 2 1 2 2 1 2 1 2 3 3 4 5 7 6 5 5 5 5 5 4 3 3 4 3 2 3 1 0 2
4 7 8 12 6 3 4 3 2 4 3 2 2 2 2 1 1 2 3 3 1 1 2 2 2 2 3 3 4 3 3 2 4 4 3 3 2 4 4 3 3 4 4 4 3 3 3 2 1 2 2 1 2 2
6 4 8 5 4 6 5 2 4 3 2 3 2 2 2 2 3 3 3 4 1 4 2 2 2 2 1 1 2 2 3 3 1 2 3 4 2 3 2 2 2 1 2 2 3 1 3 3 3 2 0 2 2 3
1 7 3 4 5 4 6 4 3 1 3 1 2 2 3 2 2 3 4 4 4 2 3 3 2 3 2 3 3 3 4 3 3 5 8 10 5 5 3 3 3 2 2 3 3 3 2 3 2 1 0 3 3 2
6 4 5 6 6 7 2 2 5 4 4 1 3 4 3 2 2 3 4 3 1 2 1 2 2 2 2 1 2 1 4 3 3 3 3 4 3 2 3 2 2 4 2 2 2 3 2 3 2 1 2 2 2 2
11 9 8 6 5 1 2 4 2 3 3 4 3 2 4 2 4 3 4 2 2 1 1 3 2 2 1 3 0 1 2 3 2 3 3 4 4 2 1 2 2 2 3 3 2 2 2 2 2 0 1 2 2 2
8 11 7 8 4 5 6 4 4 3 3 2 3 3 3 3 2 4 3 2 3 3 3 3 2 2 1 1 1 2 2 2 2 3 2 2 3 2 3 2 2 4 3 3 2 3 2 2 1 2 3 3 4 4
11 6 5 3 4 4 3 3 4 3 2 3 2 2 2 3 5 3 2 3 3 2 3 4 4 4 2 1 1 1 2 2 2 3 2 3 3 4 3 2 1 3 3 3 3 3 3 3 2 4 4 5 5 5
8 6 4 0 1 0 3 3 1 3 5 4 3 5 3 5 4 3 2 1 2 2 2 2 1 1 2 3 3 3 2 3 2 3 2 3 4 3 3 2 2 3 1 3 3 3 4 4 4 5 5 4 5 5
3 4 4 6 4 1 3 3 4 4 3 3 1 6 4 4 1 3 2 2 3 3 3 3 3 2 2 2 1 1 2 2 4 3 1 1 1 1 1 1 2 5 2 3 3 3 4 4 5 5 5 7 7 4
4 4 1 5 4 5 4 3 0 1 2 1 2 3 2 1 2 2 3 4 5 2 2 3 3 2 1 0 1 3 2 3 4 5 5 3 3 2 2 2 3 3 2 3 6 7 7 6 7 7 8 7 6 3
5 2 4 4 4 4 2 1 1 1 1 1 2 1 1 1 1 2 3 3 3 3 2 2 2 3 3 3 2 5 4 4 4 3 2 2 3 4 4 4 4 4 3 3 4 4 6 4 5 4 4 4 3 5
1 4 3 4 3 1 1 2 1 1 1 1 0 1 2 2 2 2 9 5 3 4 5 5 6 6 5 5 4 4 4 2 4 3 2 3 4 5 5 5 5 4 3 3 4 4 5 3 4 6 7 9 9 8
3 4 3 4 3 2 2 3 1 1 2 2 3 1 1 1 4 5 8 7 7 7 8 6 6 5 5 3 2 2 3 4 5 6 7 5 5 6 6 5 5 4 4 5 4 5 5 7 6 7 9 11 10 10
2 1 1 2 2 2 3 3 0 2 1 2 3 1 1 2 5 1 1 2 2 2 3 4 4 4 5 6 5 4 5 5 8 11 11 12 12 11 7 3 4 3 5 5 6 6 8 10 9 10 10 11 11 11
Wind_Direction
254 247 243 250 242 233 236 228 225 228 226 224 219 215 214 209 213 157 202 164 132 154 283 210 226 147 118 122 145 203 75 335 50 110 139 200 176 215 155 202 177 157 168 202 90 117 265 186 77 158 215 194 179 192
239 242 240 239 235 239 240 234 233 232 226 229 223 212 209 212 217 190 184 167 125 133 234 290 285 287 178 179 131 226 156 160 165 118 212 118 244 75 154 232 173 247 200 181 183 202 216 194 193 221 175 173 203 200
241 235 241 240 239 229 241 238 235 232 229 226 222 211 213 213 216 198 154 157 105 176 245 235 204 233 167 159 158 129 277 175 180 169 160 194 200 120 161 245 126 270 142 223 80 210 229 229 236 232 202 213 226 220
237 244 242 239 230 227 218 230 222 231 232 230 226 223 226 222 218 206 183 147 126 131 189 261 320 204 186 158 165 140 140 114 126 126 129 155 173 178 203 198 187 220 164 228 259 259 266 259 241 246 241 227 236 238
227 237 234 236 239 224 227 219 216 211 212 218 231 237 236 230 230 217 191 181 181 168 202 291 310 244 190 180 186 165 150 142 128 122 174 211 201 105 268 123 238 229 238 238 249 245 231 258 255 230 213 237 239 232
228 227 229 228 225 219 222 215 210 216 215 215 216 220 217 233 224 149 217 185 185 177 191 229 221 253 195 191 202 202 197 178 132 183 183 224 213 153 180 219 244 248 236 233 249 256 248 254 258 226 211 227 229 214
222 215 218 225 221 211 216 212 213 214 222 227 232 230 220 213 195 184 195 151 187 154 188 204 207 237 203 145 193 184 169 184 194 202 202 196 193 187 209 242 251 251 245 244 235 243 260 242 238 236 210 225 124 106
206 204 211 217 209 206 216 215 216 220 224 228 229 235 238 238 238 225 167 139 135 153 219 222 159 28 213 162 184 162 175 178 189 200 207 208 151 209 236 238 247 248 241 252 248 233 242 264 167 155 105 128 148 174
200 196 200 198 191 187 192 211 212 219 229 228 222 218 233 206 192 177 158 182 152 190 208 202 152 218 186 127 117 102 141 200 168 201 205 143 193 215 220 233 243 244 222 242 257 6 127 205 206 157 137 138 175 186
203 183 177 171 174 182 192 199 201 206 214 179 114 173 196 198 163 131 164 195 192 199 227 205 87 180 137 147 162 121 179 196 209 228 139 214 228 234 237 238 227 228 218 148 132 274 199 230 186 170 195 156 170 158
167 166 170 171 184 206 223 216 195 188 103 119 185 196 217 173 87 175 194 203 174 202 190 199 185 143 255 150 163 203 178 187 205 234 175 208 243 235 234 238 233 142 136 110 112 103 97 126 158 143 130 114 109 110
145 185 183 196 210 217 220 221 199 152 150 143 121 74 90 186 206 197 184 207 180 204 237 157 193 154 164 147 130 172 182 189 221 135 159 230 244 217 199 182 128 114 117 110 93 115 102 91 73 93 91 94 88 94
188 213 217 224 228 218 209 199 187 165 116 85 128 189 161 239 207 183 201 200 222 182 164 172 154 128 133 189 172 177 202 211 111 185 218 227 229 211 158 130 113 110 109 110 93 80 91 91 70 73 102 82 86 66
84 100 224 230 220 222 219 205 196 145 105 179 178 198 196 196 233 190 189 198 223 133 157 141 130 150 174 179 180 221 191 128 199 204 224 226 218 184 144 122 126 143 128 119 114 107 102 104 101 93 103 135 123 348
44 12 310 245 236 230 222 210 210 126 156 183 181 223 207 235 11 215 228 58 348 170 135 87 52 142 156 202 196 136 185 227 205 218 220 221 162 138 141 141 134 135 130 124 126 120 121 120 119 114 70 81 127 267
359 8 18 356 314 263 234 220 182 126 201 196 178 148 174 74 321 356 355 109 267 100 87 154 178 207 193 191 194 197 183 209 232 214 275 39 73 88 117 113 112 122 124 124 118 118 118 122 139 171 289 285 247 203
50 67 340 305 275 271 355 143 123 202 224 189 189 352 96 118 134 159 149 336 307 107 171 190 203 203 161 226 198 170 204 222 268 333 360 43 106 114 115 114 106 113 109 110 103 96 113 111 89 55 54 292 277 252
75 298 344 329 128 75 44 24 70 83 93 53 113 280 24 79 106 34 7 34 52 199 171 237 298 212 203 182 226 60 83 24 18 60 65 38 92 107 114 119 120 128 123 111 114 123 115 118 106 204 239 271 324 353
238 70 29 6 75 85 77 30 8 105 68 114 68 23 59 107 25 28 348 319 314 315 333 201 249 227 259 26 79 125 112 223 151 88 73 74 100 107 114 115 125 114 124 131 143 147 151 182 174 216 261 287 51 316
5 27 19 37 46 95 93 21 9 86 109 89 50 66 69 40 311 353 349 350 323 109 229 251 44 25 1 17 352 357 5 90 122 121 101 100 101 106 125 141 130 136 127 115 105 107 85 51 1 242 246 211 79 308
45 345 30 61 52 54 71 41 59 51 90 79 339 31 66 18 31 20 0 333 74 31 61 41 33 12 62 1 347 324 11 7 105 164 151 135 166 105 99 74 126 88 108 113 123 87 96 163 222 241 39 298 261 263
312 21 57 34 78 57 73 8 105 124 67 119 66 43 43 37 3 3 300 50 50 41 353 349 358 334 10 29 349 2 298 322 26 64 86 119 143 153 154 183 113 133 123 163 144 161 214 235 237 274 271 277 303 303
20 30 53 19 74 43 309 41 75 2 86 291 30 58 14 1 263 298 77 73 86 3 322 318 318 316 345 336 267 28 13 40 56 57 80 96 93 78 94 128 150 122 99 298 176 158 193 235 254 232 282 327 331 307
32 45 29 40 37 66 11 26 47 54 47 35 62 43 340 284 317 61 80 45 279 265 349 332 309 300 274 246 41 21 22 37 79 69 18 80 85 39 156 185 147 165 185 165 149 182 210 216 211 276 311 298 289 289
67 5 12 5 3 34 40 17 11 55 59 332 79 15 333 337 75 59 68 352 352 14 359 322 307 352 349 357 24 23 0 77 117 111 306 90 113 42 7 356 282 233 162 122 202 196 224 204 219 255 262 268 286 297
69 350 52 324 351 50 353 57 32 21 6 57 25 277 5 42 61 47 357 320 321 334 352 350 339 337 4 21 135 338 261 176 122 92 270 183 153 135 156 130 343 304 196 179 163 194 217 224 229 252 263 273 280 285
56 343 330 283 115 315 29 356 333 36 49 28 353 351 15 65 49 285 302 353 312 288 258 264 229 297 274 293 287 270 262 192 169 190 221 193 206 183 151 180 241 249 199 192 202 198 211 229 242 248 262 270 252 255
120 24 32 326 16 24 107 46 44 39 11 352 277 32 63 45 3 305 285 321 258 295 292 273 241 227 267 293 304 336 340 254 263 267 332 358 15 29 359 330 295 289 237 224 229 224 218 231 242 253 257 266 275 245
36 336 316 5 25 46 53 57 72 5 344 354 69 67 83 60 251 284 306 316 302 324 12 16 354 295 227 158 43 29 16 4 28 41 35 7 359 350 17 347 321 305 281 266 272 249 229 228 235 240 248 253 263 257
344 3 336 12 48 40 20 20 340 332 304 358 303 262 169 204 262 258 298 324 2 358 327 301 320 1 12 23 50 59 31 34 33 48 29 328 277 303 317 304 298 283 266 251 266 280 302 343 335 337 322 297 275 275
314 18 37 18 76 358 352 330 270 242 277 4 52 8 58 337 303 354 12 353 331 358 27 36 44 25 29 27 24 32 26 4 11 338 267 275 286 282 279 274 264 255 248 247 254 257 268 267 248 267 273 274 271 261
347 38 0 36 354 283 45 58 4 50 350 38 28 344 318 64 64 27 0 6 34 40 25 27 26 6 347 332 318 284 279 300 315 321 309 297 287 275 275 272 264 252 251 253 252 254 249 255 266 263 268 272 274 275
331 2 335 342 10 30 11 339 96 94 76 72 43 25 44 58 88 304 305 72 53 353 352 335 319 312 322 320 298 298 316 297 300 320 317 316 317 316 315 290 288 298 287 278 273 267 268 266 267 267 268 266 268 270